Previsão horária em Julianka

Hoje, 14 Junho, Segunda-feira

Tempo Temperatura Precipitação Vento Pressão Humidade
00:00 +10°C° 0 mm 4 m/s 756 mmHg 92%
01:00 +10°C° 0 mm 4 m/s 757 mmHg 93%
02:00 +10°C° 0 mm 4 m/s 757 mmHg 94%
03:00 +8°C° 0 mm 4 m/s 757 mmHg 94%
04:00 +9°C° 0 mm 3 m/s 757 mmHg 95%
05:00 +11°C° 0 mm 4 m/s 757 mmHg 86%
06:00 +12°C° 0 mm 4 m/s 757 mmHg 76%
07:00 +14°C° 0 mm 4 m/s 757 mmHg 67%
08:00 +15°C° 0 mm 4 m/s 757 mmHg 61%
09:00 +18°C° 0 mm 4 m/s 757 mmHg 55%
10:00 +19°C° 0 mm 4 m/s 758 mmHg 49%
11:00 +20°C° 0 mm 3 m/s 757 mmHg 47%
12:00 +21°C° 0 mm 3 m/s 757 mmHg 45%
13:00 +21°C° 0 mm 3 m/s 757 mmHg 43%
14:00 +22°C° 0 mm 3 m/s 757 mmHg 43%
15:00 +23°C° 0 mm 2 m/s 756 mmHg 43%
16:00 +23°C° 0 mm 2 m/s 756 mmHg 43%
17:00 +21°C° 0 mm 2 m/s 756 mmHg 50%
18:00 +20°C° 0 mm 1 m/s 756 mmHg 57%
19:00 +19°C° 0 mm 1 m/s 756 mmHg 64%
20:00 +18°C° 0 mm 1 m/s 756 mmHg 67%
21:00 +16°C° 0 mm 1 m/s 756 mmHg 71%
22:00 +14°C° 0 mm 1 m/s 756 mmHg 74%
23:00 +14°C° 0 mm 2 m/s 756 mmHg 77%

Amanhã, 15 Junho, Terça-feira

Tempo Temperatura Precipitação Vento Pressão Humidade
00:00 +13°C° 0 mm 2 m/s 756 mmHg 80%
01:00 +13°C° 0 mm 2 m/s 755 mmHg 83%
02:00 +13°C° 0 mm 2 m/s 755 mmHg 84%
03:00 +13°C° 0 mm 2 m/s 755 mmHg 86%
04:00 +13°C° 0 mm 2 m/s 755 mmHg 87%
05:00 +15°C° 0 mm 2 m/s 755 mmHg 82%
06:00 +16°C° 0 mm 3 m/s 755 mmHg 77%
07:00 +18°C° 0 mm 3 m/s 756 mmHg 71%
08:00 +19°C° 0 mm 3 m/s 755 mmHg 67%
09:00 +20°C° 0 mm 3 m/s 755 mmHg 63%
10:00 +22°C° 0 mm 3 m/s 755 mmHg 59%
11:00 +22°C° 0 mm 3 m/s 755 mmHg 59%
12:00 +24°C° 0 mm 3 m/s 755 mmHg 58%
13:00 +24°C° 0 mm 3 m/s 755 mmHg 58%
14:00 +24°C° 0 mm 3 m/s 754 mmHg 59%
15:00 +24°C° 0 mm 3 m/s 754 mmHg 61%
16:00 +24°C° 0 mm 3 m/s 754 mmHg 62%
17:00 +22°C° 0.6 mm 3 m/s 754 mmHg 71%
18:00 +20°C° 0.6 mm 3 m/s 754 mmHg 81%
19:00 +18°C° 0.6 mm 3 m/s 754 mmHg 91%
20:00 +17°C° 0.3 mm 3 m/s 754 mmHg 91%
21:00 +16°C° 0.3 mm 3 m/s 755 mmHg 92%
22:00 +14°C° 0.3 mm 3 m/s 755 mmHg 92%
23:00 +13°C° 0 mm 3 m/s 755 mmHg 92%

Depois de amanhã, 16 Junho, Quarta-feira

Tempo Temperatura Precipitação Vento Pressão Humidade
00:00 +12°C° 0 mm 3 m/s 755 mmHg 91%
01:00 +11°C° 0 mm 3 m/s 756 mmHg 90%
02:00 +12°C° 0 mm 2 m/s 756 mmHg 91%
03:00 +10°C° 0 mm 2 m/s 756 mmHg 91%
04:00 +9°C° 0 mm 2 m/s 756 mmHg 92%
05:00 +12°C° 0 mm 2 m/s 757 mmHg 85%
06:00 +13°C° 0 mm 2 m/s 757 mmHg 78%
07:00 +14°C° 0 mm 3 m/s 757 mmHg 71%
08:00 +17°C° 0 mm 2 m/s 757 mmHg 64%
09:00 +18°C° 0 mm 2 m/s 757 mmHg 57%
10:00 +20°C° 0 mm 2 m/s 757 mmHg 50%
11:00 +21°C° 0 mm 2 m/s 757 mmHg 48%
12:00 +21°C° 0 mm 2 m/s 757 mmHg 46%
13:00 +23°C° 0 mm 2 m/s 757 mmHg 45%
14:00 +23°C° 0 mm 2 m/s 757 mmHg 45%
15:00 +23°C° 0 mm 2 m/s 757 mmHg 46%
16:00 +23°C° 0 mm 2 m/s 757 mmHg 46%
17:00 +21°C° 0 mm 2 m/s 757 mmHg 54%
18:00 +20°C° 0 mm 2 m/s 757 mmHg 62%
19:00 +18°C° 0 mm 2 m/s 757 mmHg 69%
20:00 +17°C° 0 mm 2 m/s 757 mmHg 71%
21:00 +16°C° 0 mm 2 m/s 758 mmHg 73%
22:00 +15°C° 0 mm 2 m/s 758 mmHg 75%
23:00 +14°C° 0 mm 2 m/s 758 mmHg 79%

17 Junho, Quinta-feira

Tempo Temperatura Precipitação Vento Pressão Humidade
00:00 +13°C° 0 mm 2 m/s 758 mmHg 82%
01:00 +13°C° 0 mm 2 m/s 758 mmHg 86%
02:00 +13°C° 0 mm 2 m/s 758 mmHg 86%
03:00 +13°C° 0 mm 2 m/s 758 mmHg 87%
04:00 +12°C° 0 mm 2 m/s 759 mmHg 87%
05:00 +14°C° 0 mm 2 m/s 759 mmHg 81%
06:00 +16°C° 0 mm 3 m/s 759 mmHg 74%
07:00 +18°C° 0 mm 3 m/s 759 mmHg 67%
08:00 +20°C° 0 mm 3 m/s 759 mmHg 62%
09:00 +21°C° 0 mm 3 m/s 759 mmHg 56%
10:00 +24°C° 0 mm 3 m/s 759 mmHg 51%
11:00 +24°C° 0 mm 3 m/s 759 mmHg 49%
12:00 +25°C° 0 mm 3 m/s 759 mmHg 46%
13:00 +26°C° 0 mm 3 m/s 759 mmHg 44%
14:00 +26°C° 0 mm 3 m/s 758 mmHg 45%
15:00 +26°C° 0 mm 3 m/s 758 mmHg 45%
16:00 +26°C° 0 mm 3 m/s 758 mmHg 46%
17:00 +25°C° 0 mm 3 m/s 758 mmHg 54%
18:00 +22°C° 0 mm 3 m/s 758 mmHg 62%
19:00 +21°C° 0 mm 3 m/s 758 mmHg 70%
20:00 +19°C° 0 mm 3 m/s 758 mmHg 72%
21:00 +18°C° 0 mm 3 m/s 758 mmHg 74%
22:00 +17°C° 0 mm 3 m/s 758 mmHg 76%
23:00 +17°C° 0 mm 3 m/s 758 mmHg 79%

18 Junho, Sexta-feira

Tempo Temperatura Precipitação Vento Pressão Humidade
00:00 +16°C° 0 mm 3 m/s 758 mmHg 83%
01:00 +16°C° 0 mm 3 m/s 758 mmHg 86%
02:00 +16°C° 0 mm 3 m/s 758 mmHg 86%
03:00 +16°C° 0 mm 3 m/s 758 mmHg 86%
04:00 +16°C° 0 mm 3 m/s 758 mmHg 87%
05:00 +18°C° 0 mm 3 m/s 758 mmHg 81%
06:00 +20°C° 0 mm 3 m/s 758 mmHg 76%
07:00 +22°C° 0 mm 3 m/s 758 mmHg 70%
08:00 +25°C° 0 mm 4 m/s 758 mmHg 66%
09:00 +26°C° 0 mm 4 m/s 758 mmHg 63%
10:00 +28°C° 0 mm 5 m/s 758 mmHg 59%
11:00 +29°C° 0 mm 5 m/s 758 mmHg 57%
12:00 +29°C° 0 mm 5 m/s 757 mmHg 55%
13:00 +30°C° 0 mm 6 m/s 757 mmHg 52%
14:00 +30°C° 0 mm 5 m/s 757 mmHg 54%
15:00 +30°C° 0 mm 5 m/s 757 mmHg 55%
16:00 +30°C° 0 mm 5 m/s 757 mmHg 57%
17:00 +29°C° 0 mm 4 m/s 757 mmHg 63%
18:00 +27°C° 0 mm 4 m/s 757 mmHg 69%
19:00 +26°C° 0 mm 4 m/s 757 mmHg 76%
20:00 +25°C° 0 mm 4 m/s 757 mmHg 80%
21:00 +24°C° 0 mm 3 m/s 757 mmHg 85%
22:00 +21°C° 0 mm 3 m/s 757 mmHg 90%
23:00 +21°C° 0 mm 3 m/s 757 mmHg 91%

19 Junho, Sábado

Tempo Temperatura Precipitação Vento Pressão Humidade
00:00 +20°C° 0 mm 3 m/s 758 mmHg 93%
01:00 +20°C° 0 mm 3 m/s 758 mmHg 95%
02:00 +19°C° 0 mm 3 m/s 758 mmHg 95%
03:00 +19°C° 0 mm 3 m/s 758 mmHg 96%
04:00 +19°C° 0 mm 3 m/s 758 mmHg 96%
05:00 +21°C° 0 mm 3 m/s 758 mmHg 89%
06:00 +22°C° 0 mm 4 m/s 758 mmHg 82%
07:00 +25°C° 0 mm 5 m/s 758 mmHg 75%
08:00 +26°C° 0 mm 5 m/s 758 mmHg 70%
09:00 +27°C° 0 mm 6 m/s 758 mmHg 64%
10:00 +28°C° 0 mm 6 m/s 758 mmHg 58%
11:00 +29°C° 0 mm 6 m/s 758 mmHg 56%
12:00 +29°C° 0 mm 6 m/s 758 mmHg 53%
13:00 +30°C° 0 mm 6 m/s 757 mmHg 50%
14:00 +30°C° 0 mm 5 m/s 757 mmHg 51%
15:00 +30°C° 0 mm 5 m/s 757 mmHg 53%
16:00 +30°C° 0 mm 5 m/s 757 mmHg 55%
17:00 +28°C° 0 mm 4 m/s 757 mmHg 61%
18:00 +27°C° 0 mm 4 m/s 757 mmHg 67%
19:00 +25°C° 0 mm 3 m/s 756 mmHg 73%
20:00 +24°C° 0 mm 3 m/s 757 mmHg 77%
21:00 +22°C° 0 mm 3 m/s 757 mmHg 81%
22:00 +21°C° 0 mm 3 m/s 758 mmHg 85%
23:00 +20°C° 0 mm 3 m/s 757 mmHg 88%
Mostrar mais

Necessitamos do seu Consentimento

A Meteoprog e os seus Fornecedores de Serviços podem armazenar e aceder a dados pessoais como cookies, identificadores do dispositivo ou outras tecnologias semelhantes existentes no seu dispositivo e processar estes dados para personalizar conteúdos e anúncios, assim como funcionalidades nas redes sociais e análise de tráfego.

  • Armazenar e/ou aceder a informações no seu dispositivo

    Os cookies, identificadores do dispositivo ou outras informações podem ser armazenados ou acedidos no seu dispositivo, para os fins acima indicados.

  • Anúncios e conteúdos personalizados, medição de anúncios e conteúdos, dados sobre o público-alvo e desenvolvimento de produtos

    Os anúncios e os conteúdos podem ser personalizados com base num perfil. Podem ser adicionados dados adicionais para uma maior personalização dos anúncios e dos conteúdos. A eficácia dos anúncios e dos conteúdos pode ser medida. Podem ser obtidas informações sobre o público que visualizou os anúncios e os conteúdos. Estes dados podem ser usados para desenvolver ou melhorar sistemas, softwares ou a experiência do utilizador.

Ao clicar em "Eu concordo”, permitirá o uso de cookies, identificadores do dispositivo e web beacons mencionados ou outras tecnologias semelhantes. As configurações do navegador do seu dispositivo podem ser alteradas.

Para certos fins, podem ser invocados interesses legítimos ao invés de consentimento. Pode ler mais informação sobre este assunto na nossa Política de Privacidade e Cookies.